Location: Luxembourg
(49.6117°N, 6.1300°E)
Time: 15:01:06
(UTC+01:00)

Envisat - Pass Details

Date: 28 January 2019
Orbit: 764 x 766 km, 98.2° (Epoch: 22 February)

Event Time Altitude Azimuth Distance (km) Brightness Sun altitude
Rises 19:05:08 0° 163° (SSE) 3,221 6.2 -16.4°
Reaches altitude 10° 19:07:25 10° 163° (SSE) 2,299 5.4 -16.7°
Maximum altitude 19:12:30 88° 73° (ENE) 774 2.9 -17.6°
Drops below altitude 10° 19:17:38 10° 346° (NNW) 2,315 5.6 -18.4°
Sets 19:19:56 0° 347° (NNW) 3,246 6.3 -18.7°
